sat.trackr.live / text

‹ back to catalog

STARLINK-6329

NORAD 56525 · 2023-065Y

PAYLOAD ACTIVE UNKNOWN

§ Identity

Operator
Country
US
Launch date
2023-05-14
Launch site
AFETR
Launch vehicle
Mass (kg)
RCS (m²)

Purposes: comms

External: N2YO · Heavens-Above · Gunter

§ Orbital elements

Epoch: 2026-09-20T05:37:50.774880Z

Period
94.27 min
Inclination
43.0032°
Eccentricity
0.0001459
Mean motion
15.27577196 rev/d
Perigee alt
482.1 km
Apogee alt
484.1 km
Semi-major
6,861.2 km
B*
1.9904e-5
RAAN
204.7840°
Arg perigee
275.5275°
Mean anomaly
84.5411°
Rev number
18,622

§ Raw data

STARLINK-63291 56525U 23065Y   26263.23461545  .00000286  00000+0  19904-4 0  99902 56525  43.0032 204.7840 0001459 275.5275  84.5411 15.27577196186226

JSON: /api/v1/satellites/56525 · /tle

For live sub-satellite position, see the globe view (requires WebGL).

§ Visibility from observer

Set your observer location to see the next 7 days of passes ≥ 10°. The values pass through the URL so the page stays shareable.

No JS? Fill the form by hand. The geolocation button needs JavaScript.